﻿測定場所 (Monitoring sites),日付 (Measurement date),時間 (Measurement time),線量率 最大値 (max) μGy/h,線量率 最小値 (min) μGy/h,線量率 平均値 (average) μGy/h,
江戸川 (Edogawa),2014-04-06,23:01～24:00,0.0770,0.0690,0.0723,
江戸川 (Edogawa),2014-04-06,22:01～23:00,0.0772,0.0693,0.0726,
江戸川 (Edogawa),2014-04-06,21:01～22:00,0.0758,0.0693,0.0722,
江戸川 (Edogawa),2014-04-06,20:01～21:00,0.0753,0.0681,0.0724,
江戸川 (Edogawa),2014-04-06,19:01～20:00,0.0773,0.0690,0.0721,
江戸川 (Edogawa),2014-04-06,18:01～19:00,0.0777,0.0676,0.0724,
江戸川 (Edogawa),2014-04-06,17:01～18:00,0.0770,0.0699,0.0733,
江戸川 (Edogawa),2014-04-06,16:01～17:00,0.0806,0.0704,0.0744,
江戸川 (Edogawa),2014-04-06,15:01～16:00,0.0896,0.0731,0.0811,
江戸川 (Edogawa),2014-04-06,14:01～15:00,0.0971,0.0712,0.0861,
江戸川 (Edogawa),2014-04-06,13:01～14:00,0.0786,0.0697,0.0734,
江戸川 (Edogawa),2014-04-06,12:01～13:00,0.0811,0.0703,0.0739,
江戸川 (Edogawa),2014-04-06,11:01～12:00,0.0805,0.0697,0.0732,
江戸川 (Edogawa),2014-04-06,10:01～11:00,0.0773,0.0696,0.0733,
江戸川 (Edogawa),2014-04-06,09:01～10:00,0.0778,0.0701,0.0734,
江戸川 (Edogawa),2014-04-06,08:01～09:00,0.0779,0.0713,0.0735,
江戸川 (Edogawa),2014-04-06,07:01～08:00,0.0853,0.0720,0.0768,
江戸川 (Edogawa),2014-04-06,06:01～07:00,0.0847,0.0724,0.0772,
江戸川 (Edogawa),2014-04-06,05:01～06:00,0.0778,0.0706,0.0736,
江戸川 (Edogawa),2014-04-06,04:01～05:00,0.0840,0.0706,0.0754,
江戸川 (Edogawa),2014-04-06,03:01～04:00,0.0913,0.0749,0.0825,
江戸川 (Edogawa),2014-04-06,02:01～03:00,0.102,0.0849,0.0925,
江戸川 (Edogawa),2014-04-06,01:01～02:00,0.0984,0.0795,0.0881,
江戸川 (Edogawa),2014-04-06,00:01～01:00,0.0857,0.0716,0.0766,
江戸川 (Edogawa),2014-04-05,23:01～24:00,0.0770,0.0709,0.0735,
江戸川 (Edogawa),2014-04-05,22:01～23:00,0.0780,0.0696,0.0732,
江戸川 (Edogawa),2014-04-05,21:01～22:00,0.0797,0.0710,0.0735,
江戸川 (Edogawa),2014-04-05,20:01～21:00,0.0776,0.0684,0.0736,
江戸川 (Edogawa),2014-04-05,19:01～20:00,0.0780,0.0692,0.0732,
江戸川 (Edogawa),2014-04-05,18:01～19:00,0.0779,0.0700,0.0735,
江戸川 (Edogawa),2014-04-05,17:01～18:00,0.0782,0.0713,0.0739,
江戸川 (Edogawa),2014-04-05,16:01～17:00,0.0787,0.0697,0.0739,
江戸川 (Edogawa),2014-04-05,15:01～16:00,0.0803,0.0703,0.0743,
江戸川 (Edogawa),2014-04-05,14:01～15:00,0.0811,0.0710,0.0745,
江戸川 (Edogawa),2014-04-05,13:01～14:00,0.0788,0.0709,0.0742,
江戸川 (Edogawa),2014-04-05,12:01～13:00,0.0801,0.0710,0.0743,
江戸川 (Edogawa),2014-04-05,11:01～12:00,0.0781,0.0706,0.0738,
江戸川 (Edogawa),2014-04-05,10:01～11:00,0.0786,0.0694,0.0733,
江戸川 (Edogawa),2014-04-05,09:01～10:00,0.0797,0.0667,0.0733,
江戸川 (Edogawa),2014-04-05,08:01～09:00,0.0795,0.0705,0.0732,
江戸川 (Edogawa),2014-04-05,07:01～08:00,0.0779,0.0693,0.0726,
江戸川 (Edogawa),2014-04-05,06:01～07:00,0.0771,0.0691,0.0728,
江戸川 (Edogawa),2014-04-05,05:01～06:00,0.0780,0.0695,0.0731,
江戸川 (Edogawa),2014-04-05,04:01～05:00,0.0752,0.0694,0.0724,
江戸川 (Edogawa),2014-04-05,03:01～04:00,0.0754,0.0686,0.0722,
江戸川 (Edogawa),2014-04-05,02:01～03:00,0.0774,0.0679,0.0725,
江戸川 (Edogawa),2014-04-05,01:01～02:00,0.0783,0.0682,0.0724,
江戸川 (Edogawa),2014-04-05,00:01～01:00,0.0773,0.0700,0.0725,
江戸川 (Edogawa),2014-04-04,23:01～24:00,0.0756,0.0695,0.0726,
江戸川 (Edogawa),2014-04-04,22:01～23:00,0.0797,0.0690,0.0729,
江戸川 (Edogawa),2014-04-04,21:01～22:00,0.0767,0.0659,0.0725,
江戸川 (Edogawa),2014-04-04,20:01～21:00,0.0789,0.0692,0.0736,
江戸川 (Edogawa),2014-04-04,19:01～20:00,0.0814,0.0701,0.0754,
江戸川 (Edogawa),2014-04-04,18:01～19:00,0.0884,0.0736,0.0806,
江戸川 (Edogawa),2014-04-04,17:01～18:00,0.0901,0.0733,0.0813,
江戸川 (Edogawa),2014-04-04,16:01～17:00,0.0800,0.0696,0.0732,
江戸川 (Edogawa),2014-04-04,15:01～16:00,0.0773,0.0697,0.0736,
江戸川 (Edogawa),2014-04-04,14:01～15:00,0.0824,0.0680,0.0735,
江戸川 (Edogawa),2014-04-04,13:01～14:00,0.0785,0.0691,0.0730,
江戸川 (Edogawa),2014-04-04,12:01～13:00,0.0786,0.0699,0.0732,
江戸川 (Edogawa),2014-04-04,11:01～12:00,0.0806,0.0694,0.0733,
江戸川 (Edogawa),2014-04-04,10:01～11:00,0.0786,0.0691,0.0726,
江戸川 (Edogawa),2014-04-04,09:01～10:00,0.0781,0.0684,0.0722,
江戸川 (Edogawa),2014-04-04,08:01～09:00,0.0744,0.0692,0.0722,
江戸川 (Edogawa),2014-04-04,07:01～08:00,0.0786,0.0695,0.0729,
江戸川 (Edogawa),2014-04-04,06:01～07:00,0.0793,0.0700,0.0733,
江戸川 (Edogawa),2014-04-04,05:01～06:00,0.0801,0.0703,0.0753,
江戸川 (Edogawa),2014-04-04,04:01～05:00,0.0809,0.0709,0.0741,
江戸川 (Edogawa),2014-04-04,03:01～04:00,0.0820,0.0701,0.0744,
江戸川 (Edogawa),2014-04-04,02:01～03:00,0.0813,0.0703,0.0749,
江戸川 (Edogawa),2014-04-04,01:01～02:00,0.0813,0.0720,0.0758,
江戸川 (Edogawa),2014-04-04,00:01～01:00,0.0829,0.0702,0.0752,
江戸川 (Edogawa),2014-04-03,23:01～24:00,0.0858,0.0723,0.0772,
江戸川 (Edogawa),2014-04-03,22:01～23:00,0.0803,0.0716,0.0750,
江戸川 (Edogawa),2014-04-03,21:01～22:00,0.0818,0.0701,0.0757,
江戸川 (Edogawa),2014-04-03,20:01～21:00,0.0826,0.0717,0.0758,
江戸川 (Edogawa),2014-04-03,19:01～20:00,0.0806,0.0703,0.0743,
江戸川 (Edogawa),2014-04-03,18:01～19:00,0.0795,0.0704,0.0743,
江戸川 (Edogawa),2014-04-03,17:01～18:00,0.0802,0.0696,0.0745,
江戸川 (Edogawa),2014-04-03,16:01～17:00,0.0819,0.0727,0.0764,
江戸川 (Edogawa),2014-04-03,15:01～16:00,0.0840,0.0720,0.0769,
江戸川 (Edogawa),2014-04-03,14:01～15:00,0.0832,0.0717,0.0775,
江戸川 (Edogawa),2014-04-03,13:01～14:00,0.0808,0.0716,0.0764,
江戸川 (Edogawa),2014-04-03,12:01～13:00,0.0813,0.0718,0.0757,
江戸川 (Edogawa),2014-04-03,11:01～12:00,0.0828,0.0720,0.0759,
江戸川 (Edogawa),2014-04-03,10:01～11:00,0.0813,0.0728,0.0762,
江戸川 (Edogawa),2014-04-03,09:01～10:00,0.0808,0.0717,0.0751,
江戸川 (Edogawa),2014-04-03,08:01～09:00,0.0819,0.0714,0.0756,
江戸川 (Edogawa),2014-04-03,07:01～08:00,0.0799,0.0719,0.0756,
江戸川 (Edogawa),2014-04-03,06:01～07:00,0.0845,0.0721,0.0760,
江戸川 (Edogawa),2014-04-03,05:01～06:00,0.0821,0.0722,0.0764,
江戸川 (Edogawa),2014-04-03,04:01～05:00,0.0843,0.0719,0.0768,
江戸川 (Edogawa),2014-04-03,03:01～04:00,0.0817,0.0721,0.0768,
江戸川 (Edogawa),2014-04-03,02:01～03:00,0.0821,0.0715,0.0764,
江戸川 (Edogawa),2014-04-03,01:01～02:00,0.0829,0.0722,0.0769,
江戸川 (Edogawa),2014-04-03,00:01～01:00,0.0806,0.0719,0.0758,
江戸川 (Edogawa),2014-04-02,23:01～24:00,0.0814,0.0719,0.0754,
江戸川 (Edogawa),2014-04-02,22:01～23:00,0.0803,0.0717,0.0754,
江戸川 (Edogawa),2014-04-02,21:01～22:00,0.0824,0.0717,0.0761,
江戸川 (Edogawa),2014-04-02,20:01～21:00,0.0812,0.0720,0.0757,
江戸川 (Edogawa),2014-04-02,19:01～20:00,0.0815,0.0717,0.0755,
江戸川 (Edogawa),2014-04-02,18:01～19:00,0.0814,0.0718,0.0759,
江戸川 (Edogawa),2014-04-02,17:01～18:00,0.0798,0.0716,0.0751,
江戸川 (Edogawa),2014-04-02,16:01～17:00,0.0817,0.0716,0.0754,
江戸川 (Edogawa),2014-04-02,15:01～16:00,0.0812,0.0711,0.0756,
江戸川 (Edogawa),2014-04-02,14:01～15:00,0.0835,0.0720,0.0755,
江戸川 (Edogawa),2014-04-02,13:01～14:00,0.0812,0.0715,0.0757,
江戸川 (Edogawa),2014-04-02,12:01～13:00,0.0812,0.0717,0.0753,
江戸川 (Edogawa),2014-04-02,11:01～12:00,0.0827,0.0723,0.0763,
江戸川 (Edogawa),2014-04-02,10:01～11:00,0.0847,0.0727,0.0766,
江戸川 (Edogawa),2014-04-02,09:01～10:00,0.0809,0.0723,0.0759,
江戸川 (Edogawa),2014-04-02,08:01～09:00,0.0809,0.0713,0.0759,
江戸川 (Edogawa),2014-04-02,07:01～08:00,0.0806,0.0720,0.0749,
江戸川 (Edogawa),2014-04-02,06:01～07:00,0.0797,0.0708,0.0752,
江戸川 (Edogawa),2014-04-02,05:01～06:00,0.0808,0.0710,0.0742,
江戸川 (Edogawa),2014-04-02,04:01～05:00,0.0809,0.0714,0.0746,
江戸川 (Edogawa),2014-04-02,03:01～04:00,0.0797,0.0696,0.0743,
江戸川 (Edogawa),2014-04-02,02:01～03:00,0.0803,0.0710,0.0745,
江戸川 (Edogawa),2014-04-02,01:01～02:00,0.0809,0.0718,0.0745,
江戸川 (Edogawa),2014-04-02,00:01～01:00,0.0801,0.0714,0.0748,
江戸川 (Edogawa),2014-04-01,23:01～24:00,0.0812,0.0712,0.0743,
江戸川 (Edogawa),2014-04-01,22:01～23:00,0.0780,0.0705,0.0740,
江戸川 (Edogawa),2014-04-01,21:01～22:00,0.0822,0.0711,0.0747,
江戸川 (Edogawa),2014-04-01,20:01～21:00,0.0799,0.0710,0.0745,
江戸川 (Edogawa),2014-04-01,19:01～20:00,0.0805,0.0714,0.0746,
江戸川 (Edogawa),2014-04-01,18:01～19:00,0.0794,0.0718,0.0746,
江戸川 (Edogawa),2014-04-01,17:01～18:00,0.0799,0.0711,0.0752,
江戸川 (Edogawa),2014-04-01,16:01～17:00,0.0801,0.0723,0.0754,
江戸川 (Edogawa),2014-04-01,15:01～16:00,0.0802,0.0719,0.0752,
江戸川 (Edogawa),2014-04-01,14:01～15:00,0.0815,0.0720,0.0754,
江戸川 (Edogawa),2014-04-01,13:01～14:00,0.0818,0.0718,0.0756,
江戸川 (Edogawa),2014-04-01,12:01～13:00,0.0835,0.0704,0.0757,
江戸川 (Edogawa),2014-04-01,11:01～12:00,0.0819,0.0717,0.0757,
江戸川 (Edogawa),2014-04-01,10:01～11:00,0.0810,0.0715,0.0756,
江戸川 (Edogawa),2014-04-01,09:01～10:00,0.0803,0.0718,0.0755,
江戸川 (Edogawa),2014-04-01,08:01～09:00,0.0817,0.0720,0.0754,
江戸川 (Edogawa),2014-04-01,07:01～08:00,0.0798,0.0714,0.0750,
江戸川 (Edogawa),2014-04-01,06:01～07:00,0.0804,0.0701,0.0740,
江戸川 (Edogawa),2014-04-01,05:01～06:00,0.0787,0.0713,0.0741,
江戸川 (Edogawa),2014-04-01,04:01～05:00,0.0778,0.0704,0.0738,
江戸川 (Edogawa),2014-04-01,03:01～04:00,0.0805,0.0706,0.0741,
江戸川 (Edogawa),2014-04-01,02:01～03:00,0.0816,0.0707,0.0743,
江戸川 (Edogawa),2014-04-01,01:01～02:00,0.0791,0.0706,0.0742,
江戸川 (Edogawa),2014-04-01,00:01～01:00,0.0788,0.0710,0.0745,
江戸川 (Edogawa),2014-03-31,23:01～24:00,0.0786,0.0714,0.0741,
江戸川 (Edogawa),2014-03-31,22:01～23:00,0.0801,0.0714,0.0745,
江戸川 (Edogawa),2014-03-31,21:01～22:00,0.0785,0.0710,0.0747,
江戸川 (Edogawa),2014-03-31,20:01～21:00,0.0782,0.0701,0.0739,
江戸川 (Edogawa),2014-03-31,19:01～20:00,0.0795,0.0708,0.0739,
江戸川 (Edogawa),2014-03-31,18:01～19:00,0.0793,0.0696,0.0740,
江戸川 (Edogawa),2014-03-31,17:01～18:00,0.0804,0.0702,0.0744,
江戸川 (Edogawa),2014-03-31,16:01～17:00,0.0813,0.0714,0.0748,
江戸川 (Edogawa),2014-03-31,15:01～16:00,0.0801,0.0716,0.0752,
江戸川 (Edogawa),2014-03-31,14:01～15:00,0.0795,0.0681,0.0747,
江戸川 (Edogawa),2014-03-31,13:01～14:00,0.0808,0.0711,0.0749,
江戸川 (Edogawa),2014-03-31,12:01～13:00,0.0788,0.0708,0.0742,
江戸川 (Edogawa),2014-03-31,11:01～12:00,0.0811,0.0709,0.0744,
江戸川 (Edogawa),2014-03-31,10:01～11:00,0.0799,0.0704,0.0740,
江戸川 (Edogawa),2014-03-31,09:01～10:00,0.0796,0.0701,0.0738,
江戸川 (Edogawa),2014-03-31,08:01～09:00,0.0784,0.0699,0.0736,
江戸川 (Edogawa),2014-03-31,07:01～08:00,0.0797,0.0677,0.0736,
江戸川 (Edogawa),2014-03-31,06:01～07:00,0.0796,0.0704,0.0739,
江戸川 (Edogawa),2014-03-31,05:01～06:00,0.0792,0.0698,0.0735,
江戸川 (Edogawa),2014-03-31,04:01～05:00,0.0797,0.0706,0.0737,
江戸川 (Edogawa),2014-03-31,03:01～04:00,0.0783,0.0706,0.0737,
江戸川 (Edogawa),2014-03-31,02:01～03:00,0.0799,0.0706,0.0741,
江戸川 (Edogawa),2014-03-31,01:01～02:00,0.0784,0.0702,0.0739,
江戸川 (Edogawa),2014-03-31,00:01～01:00,0.0779,0.0708,0.0736,
